• In Belarus
  • List of Countries
  • For 7 days
  • Water Temperature
  • Satellite Maps
  • Weather Map
  • Weather Widgets
  • user-avatar
    Login

    Hourly Weather Kruszyniec

    Today, 22 September, Saturday

    Time Temperature Precipitation Wind Pressure Humidity
    00:00 +14°C° 0.3 mm 5 mps 751 mmHg 78%
    01:00 +13°C° 0.3 mm 4 mps 752 mmHg 76%
    02:00 +13°C° 0 mm 4 mps 753 mmHg 75%
    03:00 +13°C° 0 mm 4 mps 753 mmHg 74%
    04:00 +12°C° 0 mm 5 mps 754 mmHg 73%
    05:00 +12°C° 0 mm 5 mps 754 mmHg 71%
    06:00 +12°C° 0 mm 5 mps 754 mmHg 70%
    07:00 +11°C° 0 mm 6 mps 755 mmHg 68%
    08:00 +13°C° 0 mm 6 mps 755 mmHg 63%
    09:00 +14°C° 0 mm 7 mps 755 mmHg 59%
    10:00 +15°C° 0 mm 7 mps 755 mmHg 54%
    11:00 +16°C° 0 mm 7 mps 755 mmHg 51%
    12:00 +17°C° 0 mm 6 mps 755 mmHg 48%
    13:00 +17°C° 0 mm 6 mps 755 mmHg 45%
    14:00 +17°C° 0 mm 6 mps 755 mmHg 45%
    15:00 +17°C° 0 mm 5 mps 755 mmHg 46%
    16:00 +17°C° 0 mm 5 mps 755 mmHg 46%
    17:00 +17°C° 0 mm 4 mps 755 mmHg 48%
    18:00 +15°C° 0 mm 4 mps 755 mmHg 50%
    19:00 +16°C° 0 mm 3 mps 755 mmHg 52%
    20:00 +14°C° 0 mm 3 mps 755 mmHg 54%
    21:00 +14°C° 0 mm 3 mps 755 mmHg 56%
    22:00 +13°C° 0 mm 3 mps 755 mmHg 57%
    23:00 +13°C° 0 mm 3 mps 755 mmHg 58%

    Tomorrow, 23 September, Sunday

    Time Temperature Precipitation Wind Pressure Humidity
    00:00 +13°C° 0 mm 3 mps 755 mmHg 59%
    01:00 +13°C° 0 mm 3 mps 755 mmHg 60%
    02:00 +12°C° 0.1 mm 3 mps 754 mmHg 66%
    03:00 +12°C° 0.1 mm 3 mps 754 mmHg 71%
    04:00 +12°C° 0.1 mm 3 mps 754 mmHg 76%
    05:00 +12°C° 0 mm 3 mps 754 mmHg 78%
    06:00 +12°C° 0 mm 4 mps 754 mmHg 79%
    07:00 +12°C° 0 mm 4 mps 754 mmHg 81%
    08:00 +12°C° 0.1 mm 4 mps 754 mmHg 78%
    09:00 +13°C° 0.1 mm 4 mps 754 mmHg 75%
    10:00 +14°C° 0.1 mm 4 mps 753 mmHg 71%
    11:00 +14°C° 0.1 mm 3 mps 753 mmHg 71%
    12:00 +14°C° 0.1 mm 3 mps 753 mmHg 70%
    13:00 +14°C° 0.1 mm 3 mps 752 mmHg 69%
    14:00 +15°C° 0.1 mm 2 mps 751 mmHg 71%
    15:00 +15°C° 0.1 mm 2 mps 751 mmHg 72%
    16:00 +15°C° 0.1 mm 2 mps 750 mmHg 73%
    17:00 +13°C° 1.5 mm 3 mps 749 mmHg 78%
    18:00 +13°C° 1.5 mm 3 mps 747 mmHg 84%
    19:00 +12°C° 1.5 mm 3 mps 746 mmHg 90%
    20:00 +12°C° 4.8 mm 4 mps 745 mmHg 91%
    21:00 +12°C° 4.8 mm 5 mps 744 mmHg 92%
    22:00 +10°C° 4.8 mm 6 mps 743 mmHg 93%
    23:00 +10°C° 2 mm 6 mps 742 mmHg 92%

    Day after tomorrow, 24 September, Monday

    Time Temperature Precipitation Wind Pressure Humidity
    00:00 +10°C° 2 mm 7 mps 742 mmHg 91%
    01:00 +10°C° 2 mm 7 mps 742 mmHg 90%
    02:00 +9°C° 1.8 mm 8 mps 744 mmHg 88%
    03:00 +9°C° 1.8 mm 8 mps 746 mmHg 87%
    04:00 +7°C° 1.8 mm 8 mps 748 mmHg 85%
    05:00 +7°C° 0.1 mm 8 mps 750 mmHg 83%
    06:00 +7°C° 0.1 mm 9 mps 751 mmHg 80%
    07:00 +7°C° 0.1 mm 9 mps 753 mmHg 78%
    08:00 +8°C° 0 mm 9 mps 754 mmHg 73%
    09:00 +9°C° 0 mm 10 mps 754 mmHg 67%
    10:00 +9°C° 0 mm 10 mps 755 mmHg 62%
    11:00 +11°C° 0.1 mm 10 mps 756 mmHg 57%
    12:00 +11°C° 0.1 mm 10 mps 756 mmHg 53%
    13:00 +12°C° 0.1 mm 11 mps 757 mmHg 48%
    14:00 +12°C° 0.1 mm 10 mps 757 mmHg 49%
    15:00 +11°C° 0.1 mm 9 mps 758 mmHg 49%
    16:00 +11°C° 0.1 mm 8 mps 758 mmHg 50%
    17:00 +10°C° 0 mm 7 mps 759 mmHg 54%
    18:00 +9°C° 0 mm 6 mps 760 mmHg 57%
    19:00 +8°C° 0 mm 4 mps 760 mmHg 61%
    20:00 +8°C° 0 mm 5 mps 761 mmHg 62%
    21:00 +7°C° 0 mm 5 mps 761 mmHg 62%
    22:00 +7°C° 0 mm 5 mps 762 mmHg 63%
    23:00 +7°C° 0 mm 5 mps 762 mmHg 65%

    25 September, Tuesday

    Time Temperature Precipitation Wind Pressure Humidity
    00:00 +6°C° 0 mm 5 mps 763 mmHg 66%
    01:00 +6°C° 0 mm 5 mps 763 mmHg 68%
    02:00 +6°C° 0 mm 5 mps 764 mmHg 70%
    03:00 +6°C° 0 mm 5 mps 764 mmHg 71%
    04:00 +5°C° 0 mm 5 mps 765 mmHg 73%
    05:00 +5°C° 0 mm 5 mps 765 mmHg 74%
    06:00 +6°C° 0 mm 5 mps 766 mmHg 74%
    07:00 +6°C° 0 mm 5 mps 766 mmHg 75%
    08:00 +7°C° 0 mm 4 mps 767 mmHg 67%
    09:00 +10°C° 0 mm 4 mps 767 mmHg 58%
    10:00 +12°C° 0 mm 4 mps 768 mmHg 50%
    11:00 +12°C° 0 mm 5 mps 768 mmHg 47%
    12:00 +13°C° 0 mm 5 mps 767 mmHg 44%
    13:00 +14°C° 0 mm 5 mps 767 mmHg 41%
    14:00 +14°C° 0 mm 5 mps 767 mmHg 42%
    15:00 +13°C° 0 mm 5 mps 767 mmHg 43%
    16:00 +13°C° 0 mm 5 mps 767 mmHg 44%
    17:00 +12°C° 0 mm 4 mps 767 mmHg 49%
    18:00 +11°C° 0 mm 4 mps 767 mmHg 53%
    19:00 +9°C° 0 mm 3 mps 767 mmHg 58%
    20:00 +8°C° 0 mm 4 mps 766 mmHg 59%
    21:00 +8°C° 0 mm 4 mps 766 mmHg 61%
    22:00 +8°C° 0 mm 4 mps 766 mmHg 62%
    23:00 +8°C° 0 mm 5 mps 766 mmHg 64%

    26 September, Wednesday

    Time Temperature Precipitation Wind Pressure Humidity
    00:00 +8°C° 0 mm 5 mps 766 mmHg 65%
    01:00 +8°C° 0 mm 5 mps 766 mmHg 67%
    02:00 +7°C° 0 mm 5 mps 765 mmHg 69%
    03:00 +7°C° 0 mm 5 mps 765 mmHg 72%
    04:00 +7°C° 0 mm 5 mps 765 mmHg 74%
    05:00 +7°C° 0 mm 5 mps 765 mmHg 75%
    06:00 +7°C° 0 mm 5 mps 765 mmHg 76%
    07:00 +7°C° 0 mm 5 mps 765 mmHg 76%
    08:00 +9°C° 0 mm 5 mps 765 mmHg 73%
    09:00 +10°C° 0 mm 5 mps 765 mmHg 69%
    10:00 +13°C° 0 mm 5 mps 765 mmHg 65%
    11:00 +14°C° 0 mm 5 mps 765 mmHg 61%
    12:00 +15°C° 0 mm 5 mps 765 mmHg 58%
    13:00 +16°C° 0 mm 5 mps 765 mmHg 54%
    14:00 +15°C° 0 mm 4 mps 765 mmHg 55%
    15:00 +15°C° 0 mm 4 mps 764 mmHg 55%
    16:00 +15°C° 0 mm 4 mps 764 mmHg 56%
    17:00 +14°C° 0 mm 3 mps 764 mmHg 61%
    18:00 +13°C° 0 mm 3 mps 764 mmHg 66%
    19:00 +12°C° 0 mm 2 mps 764 mmHg 71%
    20:00 +12°C° 0 mm 2 mps 764 mmHg 72%
    21:00 +12°C° 0 mm 2 mps 764 mmHg 73%
    22:00 +10°C° 0 mm 3 mps 764 mmHg 73%
    23:00 +10°C° 0 mm 3 mps 763 mmHg 73%

    27 September, Thursday

    Time Temperature Precipitation Wind Pressure Humidity
    00:00 +10°C° 0 mm 3 mps 763 mmHg 73%
    01:00 +9°C° 0 mm 3 mps 762 mmHg 72%
    02:00 +9°C° 0 mm 3 mps 762 mmHg 71%
    03:00 +9°C° 0 mm 3 mps 762 mmHg 70%
    04:00 +9°C° 0 mm 3 mps 761 mmHg 68%
    05:00 +9°C° 0 mm 3 mps 761 mmHg 67%
    06:00 +9°C° 0 mm 3 mps 761 mmHg 65%
    07:00 +9°C° 0 mm 3 mps 760 mmHg 63%
    08:00 +11°C° 0 mm 4 mps 760 mmHg 57%
    09:00 +14°C° 0 mm 4 mps 760 mmHg 50%
    10:00 +16°C° 0 mm 5 mps 759 mmHg 44%
    11:00 +17°C° 0 mm 5 mps 759 mmHg 41%
    12:00 +19°C° 0 mm 5 mps 758 mmHg 38%
    13:00 +20°C° 0 mm 5 mps 758 mmHg 35%
    14:00 +20°C° 0 mm 5 mps 757 mmHg 37%
    15:00 +20°C° 0 mm 5 mps 756 mmHg 39%
    16:00 +20°C° 0 mm 4 mps 756 mmHg 41%
    17:00 +18°C° 0 mm 4 mps 756 mmHg 45%
    18:00 +17°C° 0 mm 4 mps 756 mmHg 48%
    19:00 +14°C° 0 mm 4 mps 756 mmHg 52%
    20:00 +14°C° 0 mm 4 mps 756 mmHg 53%
    21:00 +14°C° 0 mm 5 mps 756 mmHg 55%
    22:00 +14°C° 0 mm 5 mps 756 mmHg 56%
    23:00 +14°C° 0 mm 5 mps 756 mmHg 62%
    Show more